DLH567 EDDH-EGAA

Flight info

Callsign DLH567
Flight time N/A
Altitude 38000
Route WSN5G WSN N125 ITMIZ DCT MIMVA L602 NALAX L46 GETNO DCT REMSI DCT UVPOK M147 ROBOP DCT RINGA
Aircraft A20N/M-SDE2E3FGHIRWXY/LB1

Departure

Time 2026-05-06 15:50
Airport Hamburg Helmut Schmidt Airport (EDDH)

Arrival

Time N/A
Airport Belfast International Airport (EGAA)
Time Latitude Longitude Altitude Speed Heading
2026-05-06 15:18 53.63374 10.00339 -65 ft 0 kts 86°
2026-05-06 15:34 53.63374 10.00331 50 ft 1 kts 86°
2026-05-06 15:35 53.63373 10.00318 48 ft 1 kts 86°
2026-05-06 15:35 53.63372 10.00305 47 ft 1 kts 92°
2026-05-06 15:35 53.63373 10.00292 48 ft 2 kts 103°
2026-05-06 15:35 53.63378 10.00268 49 ft 2 kts 125°
2026-05-06 15:36 53.63388 10.00250 47 ft 2 kts 143°
2026-05-06 15:36 53.63395 10.00241 47 ft 0 kts 156°
2026-05-06 15:38 53.63365 10.00249 50 ft 9 kts 175°
2026-05-06 15:38 53.63281 10.00244 49 ft 14 kts 183°
2026-05-06 15:38 53.63170 10.00258 47 ft 18 kts 173°
2026-05-06 15:38 53.63042 10.00237 45 ft 20 kts 209°
2026-05-06 15:39 53.62953 10.00138 45 ft 0 kts 213°
2026-05-06 15:39 53.62950 10.00135 45 ft 2 kts 213°
2026-05-06 15:39 53.62910 10.00095 45 ft 11 kts 206°
2026-05-06 15:40 53.62875 10.00053 43 ft 0 kts 225°
2026-05-06 15:40 53.62868 10.00034 45 ft 0 kts 237°
2026-05-06 15:41 53.62858 10.00003 45 ft 6 kts 243°
2026-05-06 15:41 53.62847 9.99963 45 ft 0 kts 244°
2026-05-06 15:46 53.62846 9.99961 43 ft 1 kts 245°
2026-05-06 15:46 53.62836 9.99923 45 ft 6 kts 244°
2026-05-06 15:46 53.62816 9.99829 46 ft 11 kts 269°
2026-05-06 15:47 53.62860 9.99749 46 ft 0 kts 332°
2026-05-06 15:49 53.62934 9.99685 47 ft 45 kts 334°
2026-05-06 15:49 53.63464 9.99237 50 ft 123 kts 333°
2026-05-06 15:49 53.64410 9.98399 112 ft 177 kts 331°
2026-05-06 15:50 53.65484 9.97260 691 ft 188 kts 334°
2026-05-06 15:50 53.66701 9.96229 1262 ft 204 kts 339°
2026-05-06 15:50 53.68036 9.95186 2013 ft 214 kts 340°
2026-05-06 15:50 53.69369 9.94105 3096 ft 212 kts 339°
2026-05-06 15:51 53.70632 9.92736 3924 ft 225 kts 316°
2026-05-06 15:51 53.71401 9.90358 4583 ft 244 kts 283°
2026-05-06 15:51 53.71327 9.87536 5556 ft 239 kts 254°
2026-05-06 15:51 53.70814 9.84954 6295 ft 252 kts 249°
2026-05-06 15:52 53.70154 9.82078 6750 ft 273 kts 249°
2026-05-06 15:52 53.69456 9.78983 7335 ft 287 kts 250°
2026-05-06 15:52 53.68780 9.75809 8269 ft 288 kts 251°
2026-05-06 15:52 53.68122 9.72582 9049 ft 296 kts 252°
2026-05-06 15:53 53.67470 9.69284 9336 ft 295 kts 252°
2026-05-06 15:53 53.66831 9.66022 9914 ft 296 kts 252°
2026-05-06 15:53 53.66175 9.62670 10505 ft 311 kts 252°
2026-05-06 15:53 53.65397 9.59129 10786 ft 333 kts 245°
2026-05-06 15:54 53.64255 9.55636 11336 ft 343 kts 236°
2026-05-06 15:54 53.62854 9.52357 12152 ft 345 kts 233°
2026-05-06 15:54 53.61433 9.49060 12971 ft 349 kts 233°
2026-05-06 15:54 53.60010 9.45732 13728 ft 352 kts 232°
2026-05-06 15:55 53.58572 9.42373 14479 ft 354 kts 232°
2026-05-06 15:55 53.57126 9.39007 15206 ft 356 kts 232°
2026-05-06 15:55 53.55687 9.35665 15946 ft 358 kts 232°
2026-05-06 15:55 53.54215 9.32257 16638 ft 361 kts 232°
2026-05-06 15:56 53.52730 9.28821 17308 ft 364 kts 232°
2026-05-06 15:56 53.51228 9.25348 17971 ft 368 kts 233°
2026-05-06 15:56 53.49718 9.21853 18594 ft 370 kts 233°
2026-05-06 15:56 53.48192 9.18331 19163 ft 374 kts 233°
2026-05-06 15:57 53.46657 9.14799 19721 ft 377 kts 233°
2026-05-06 15:57 53.45122 9.11274 20295 ft 380 kts 233°
2026-05-06 15:57 53.43557 9.07683 20874 ft 382 kts 233°
2026-05-06 15:57 53.41961 9.04027 21401 ft 386 kts 233°
2026-05-06 15:58 53.40386 9.00426 21963 ft 389 kts 233°
2026-05-06 15:58 53.38779 8.96748 22491 ft 392 kts 233°
2026-05-06 15:58 53.37157 8.93042 23020 ft 395 kts 233°
2026-05-06 15:58 53.35570 8.89249 23536 ft 399 kts 238°
2026-05-06 15:59 53.34243 8.85138 24025 ft 402 kts 245°
2026-05-06 15:59 53.33212 8.80779 24474 ft 405 kts 249°
2026-05-06 15:59 53.32248 8.76347 24917 ft 408 kts 249°
2026-05-06 15:59 53.31263 8.71858 25344 ft 410 kts 249°
2026-05-06 16:00 53.30286 8.67423 25722 ft 413 kts 249°
2026-05-06 16:00 53.29282 8.62896 26166 ft 415 kts 249°
2026-05-06 16:00 53.28284 8.58348 26573 ft 418 kts 249°
2026-05-06 16:00 53.27283 8.53771 27005 ft 420 kts 249°
2026-05-06 16:01 53.26274 8.49163 27400 ft 424 kts 249°
2026-05-06 16:01 53.25328 8.44494 27832 ft 426 kts 251°
2026-05-06 16:01 53.24452 8.39756 28176 ft 428 kts 252°
2026-05-06 16:01 53.23583 8.34973 28529 ft 431 kts 252°
2026-05-06 16:02 53.22713 8.30224 28849 ft 433 kts 252°
2026-05-06 16:02 53.21814 8.25403 29170 ft 436 kts 252°
2026-05-06 16:02 53.20900 8.20568 29491 ft 438 kts 251°
2026-05-06 16:02 53.19975 8.15711 29801 ft 440 kts 251°
2026-05-06 16:03 53.19041 8.10827 30102 ft 442 kts 251°
2026-05-06 16:03 53.18109 8.05923 30410 ft 443 kts 251°
2026-05-06 16:03 53.17186 8.01014 30738 ft 444 kts 251°
2026-05-06 16:03 53.16261 7.96095 31047 ft 445 kts 251°
2026-05-06 16:04 53.15345 7.91245 31434 ft 444 kts 251°
2026-05-06 16:04 53.14416 7.86352 31921 ft 441 kts 251°
2026-05-06 16:04 53.13491 7.81492 32341 ft 438 kts 251°
2026-05-06 16:04 53.12569 7.76672 32769 ft 436 kts 251°
2026-05-06 16:05 53.11664 7.71850 33170 ft 435 kts 253°
2026-05-06 16:05 53.11008 7.66948 33540 ft 434 kts 259°
2026-05-06 16:05 53.10675 7.61956 33891 ft 434 kts 265°
2026-05-06 16:05 53.10659 7.57000 34183 ft 433 kts 270°
2026-05-06 16:06 53.10755 7.51988 34429 ft 433 kts 270°
2026-05-06 16:06 53.10841 7.46977 34644 ft 433 kts 270°
2026-05-06 16:06 53.10922 7.41958 34905 ft 433 kts 270°
2026-05-06 16:06 53.11000 7.36955 35145 ft 432 kts 269°
2026-05-06 16:07 53.11074 7.31943 35365 ft 432 kts 269°
2026-05-06 16:07 53.11145 7.26928 35563 ft 433 kts 269°
2026-05-06 16:07 53.11214 7.21965 35750 ft 433 kts 269°
2026-05-06 16:07 53.11280 7.16971 35969 ft 432 kts 269°
2026-05-06 16:08 53.11345 7.11954 36158 ft 432 kts 269°
2026-05-06 16:08 53.11407 7.06959 36347 ft 432 kts 269°
2026-05-06 16:08 53.11468 7.01959 36532 ft 432 kts 269°
2026-05-06 16:08 53.11527 6.96946 36721 ft 432 kts 269°
2026-05-06 16:09 53.11583 6.91935 36908 ft 432 kts 269°
2026-05-06 16:09 53.11637 6.86948 37080 ft 432 kts 269°
2026-05-06 16:09 53.11689 6.81949 37249 ft 432 kts 269°
2026-05-06 16:09 53.11739 6.77015 37426 ft 431 kts 269°
2026-05-06 16:10 53.11787 6.72018 37582 ft 431 kts 269°